This is the latest recevied weather packets stored in our database for station/object KR8N. If no packets are shown the sender has not sent any weather packets the latest 10 day(s).
| Time | Temp. | Humidity | Pressure | Rain* | Wind** | Luminosity | Snow |
|---|---|---|---|---|---|---|---|
| 1778072954 | 14.44° C | 92% | 1012.9 hPa | 0 mm | - | 138 W/m² | - |
| 1778072650 | 14.44° C | 92% | 1012.9 hPa | 0 mm | - | 145 W/m² | - |
| 1778072348 | 14.44° C | 92% | 1012.9 hPa | 0 mm | - | 131 W/m² | - |
| 1778072046 | 14.44° C | 92% | 1012.8 hPa | 0 mm | - | 70 W/m² | - |
| 1778071744 | 14.44° C | 93% | 1012.9 hPa | 0 mm | - | 65 W/m² | - |
| 1778071441 | 14.44° C | 93% | 1012.9 hPa | 0 mm | - | 96 W/m² | - |
| 1778071139 | 13.89° C | 94% | 1013 hPa | 0 mm | - | 112 W/m² | - |
| 1778070837 | 13.89° C | 94% | 1012.6 hPa | 0 mm | - | 127 W/m² | - |
| 1778070534 | 13.89° C | 95% | 1012.7 hPa | 0 mm | - | 142 W/m² | - |
| 1778070230 | 13.33° C | 95% | 1012.8 hPa | 0 mm | - | 121 W/m² | - |
| 1778069929 | 13.33° C | 95% | 1012.4 hPa | 0 mm | - | 108 W/m² | - |
| 1778069626 | 13.33° C | 95% | 1012.6 hPa | 1.78 mm | - | 70 W/m² | - |
| 1778069322 | 13.33° C | 95% | 1012.9 hPa | 4.83 mm | - | 20 W/m² | - |
| 1778069020 | 13.33° C | 95% | 1012.8 hPa | 6.1 mm | - | 14 W/m² | - |
| 1778068717 | 13.33° C | 94% | 1012.6 hPa | 3.05 mm | - | 17 W/m² | - |
| 1778068415 | 13.33° C | 94% | 1012.6 hPa | 1.27 mm | - | 9 W/m² | - |
| 1778068113 | 13.33° C | 94% | 1012.7 hPa | 3.05 mm | - | 6 W/m² | - |
| 1778067811 | 13.33° C | 94% | 1012.6 hPa | 3.56 mm | - | 20 W/m² | - |
| 1778067509 | 13.33° C | 94% | 1012.5 hPa | 1.78 mm | - | 23 W/m² | - |
| 1778067206 | 13.33° C | 94% | 1012.6 hPa | 1.78 mm | - | 15 W/m² | - |
| 1778066903 | 13.33° C | 94% | 1012.5 hPa | 1.27 mm | - | 15 W/m² | - |
| 1778066600 | 13.33° C | 94% | 1012.3 hPa | 1.27 mm | - | 10 W/m² | - |
| 1778066297 | 13.33° C | 93% | 1012.2 hPa | 0 mm | - | 5 W/m² | - |
| 1778065995 | 13.33° C | 93% | 1012.1 hPa | 0 mm | - | 5 W/m² | - |
| 1778065693 | 12.78° C | 93% | 1012.1 hPa | 1.78 mm | - | 4 W/m² | - |
* Rain latest hour (hover to see other rain measurements)
** Current wind speed in m/s (hover to see current wind gust speed)